Weather History for Glasgow, KY

Change the Weather History Date:

Saturday, May 3, 2014

  Actual Average Record
Temperature  
Mean Temperature 58 °F -  
Max Temperature 74 °F 72 °F 85 °F (1955)
Min Temperature 41 °F 47 °F 33 °F (2005)
Degree Days  
Heating Degree Days 8    
Growing Degree Days 8 (Base 50)    
Moisture  
Dew Point 43 °F    
Average Humidity 62    
Maximum Humidity 100    
Minimum Humidity 32    
Precipitation  
Precipitation 0.00 in - - ()
Sea Level Pressure  
Sea Level Pressure 29.95 in    
Wind  
Wind Speed 3 mph (West)    
Max Wind Speed 17 mph    
Max Gust Speed 23 mph    
Visibility 10 miles    
Events      
Averages and records for this station are not official NWS values.
T = Trace of Precipitation, MM = Missing Value Source: NWS Daily Summary

Daily Weather History Graph

Daily Weather History Graph

Search for Another Location

Airport:

Trip Planner

Search our weather history database for the weather conditions in past years. The results will help you decide how hot, cold, wet, or windy it might be!

Date:

Astronomy

May. 03, 2014 Rise Set
Actual Time 5:47 AM CDT 7:34 PM CDT
Civil Twilight 5:19 AM CDT 8:02 PM CDT
Nautical Twilight 4:45 AM CDT 8:36 PM CDT
Astronomical Twilight 4:09 AM CDT 9:13 PM CDT
Moon 9:17 AM CDT (5/3) 11:39 PM CDT (5/3)
Length of Visible Light 14h 43m
Length of Day
13h 47m
Waxing Crescent, 20% of the Moon is Illuminated
May 3
Waxing Crescent
May 6
First Quarter
May 14
Full
May 21
Last Quarter
May 28
New

Hourly Weather History & Observations

Time (CDT) Temp. Dew Point Humidity Pressure Visibility Wind Dir Wind Speed Gust Speed Precip Events Conditions
12:15 AM 43.3 °F 43.3 °F 100% 29.94 in 10.0 mi Calm Calm - N/A   Clear
12:35 AM 43.2 °F 43.2 °F 100% 29.94 in 10.0 mi Calm Calm - N/A   Clear
12:55 AM 42.8 °F 42.8 °F 100% 29.94 in 10.0 mi Calm Calm - N/A   Clear
1:15 AM 42.4 °F 42.4 °F 100% 29.94 in 10.0 mi Calm Calm - N/A   Clear
1:35 AM 42.4 °F 42.4 °F 100% 29.93 in 10.0 mi Calm Calm - N/A   Clear
1:55 AM 42.1 °F 42.1 °F 100% 29.93 in 10.0 mi Calm Calm - N/A   Clear
2:15 AM 41.9 °F 41.9 °F 100% 29.93 in 10.0 mi Calm Calm - N/A   Clear
2:35 AM 42.8 °F 42.6 °F 99% 29.93 in 10.0 mi Calm Calm - N/A   Clear
2:55 AM 43.7 °F 41.7 °F 93% 29.93 in 10.0 mi Calm Calm - N/A   Clear
3:15 AM 44.2 °F 40.6 °F 87% 29.93 in 10.0 mi Calm Calm - N/A   Clear
3:35 AM 44.6 °F 40.3 °F 85% 29.93 in 10.0 mi Calm Calm - N/A   Clear
3:55 AM 44.1 °F 40.3 °F 87% 29.93 in 10.0 mi Calm Calm - N/A   Clear
4:15 AM 44.8 °F 40.1 °F 84% 29.93 in 10.0 mi Calm Calm - N/A   Clear
4:35 AM 44.8 °F 39.7 °F 82% 29.93 in 10.0 mi Calm Calm - N/A   Clear
4:55 AM 44.6 °F 39.4 °F 82% 29.93 in 10.0 mi Calm Calm - N/A   Clear
5:15 AM 44.2 °F 39.2 °F 82% 29.93 in 10.0 mi Calm Calm - N/A   Clear
5:35 AM 44.6 °F 39.2 °F 81% 29.93 in 10.0 mi Calm Calm - N/A   Scattered Clouds
5:55 AM 44.8 °F 39.2 °F 81% 29.93 in 10.0 mi Calm Calm - N/A   Clear
6:15 AM 45.5 °F 39.4 °F 79% 29.94 in 10.0 mi Calm Calm - N/A   Clear
6:35 AM 46.2 °F 39.4 °F 77% 29.95 in 10.0 mi Calm Calm - N/A   Clear
6:55 AM 46.9 °F 40.6 °F 79% 29.95 in 10.0 mi Calm Calm - N/A   Clear
7:15 AM 48.7 °F 41.7 °F 77% 29.94 in 10.0 mi SW 4.6 mph - N/A   Clear
7:35 AM 50.7 °F 42.3 °F 73% 29.95 in 10.0 mi SW 4.6 mph - N/A   Clear
7:55 AM 52.7 °F 43.0 °F 70% 29.95 in 10.0 mi SW 8.1 mph - N/A   Clear
8:15 AM 54.9 °F 43.3 °F 65% 29.95 in 10.0 mi SW 8.1 mph - N/A   Scattered Clouds
8:35 AM 57.6 °F 43.7 °F 60% 29.94 in 10.0 mi SW 8.1 mph - N/A   Scattered Clouds
8:55 AM 59.2 °F 43.3 °F 56% 29.95 in 10.0 mi SW 10.4 mph - N/A   Clear
9:15 AM 60.6 °F 43.5 °F 53% 29.95 in 10.0 mi SW 8.1 mph - N/A   Clear
9:35 AM 62.4 °F 43.5 °F 50% 29.96 in 10.0 mi WSW 10.4 mph 16.1 mph N/A   Mostly Cloudy
9:55 AM 63.1 °F 42.8 °F 47% 29.96 in 10.0 mi WSW 11.5 mph - N/A   Overcast
10:15 AM 63.7 °F 42.6 °F 46% 29.97 in 10.0 mi West 8.1 mph - N/A   Overcast
10:35 AM 65.1 °F 43.0 °F 45% 29.96 in 10.0 mi WSW 13.8 mph 18.4 mph N/A   Mostly Cloudy
10:55 AM 64.8 °F 41.5 °F 43% 29.96 in 10.0 mi WSW 11.5 mph 19.6 mph N/A   Mostly Cloudy
11:15 AM 64.2 °F 42.3 °F 45% 29.96 in 10.0 mi WSW 12.7 mph 18.4 mph N/A   Overcast
11:35 AM 64.6 °F 43.2 °F 46% 29.96 in 10.0 mi WSW 12.7 mph 17.3 mph N/A   Overcast
11:55 AM 65.7 °F 43.7 °F 45% 29.96 in 10.0 mi WSW 12.7 mph 19.6 mph N/A   Overcast
12:15 PM 66.4 °F 42.6 °F 42% 29.95 in 10.0 mi WSW 17.3 mph 20.7 mph N/A   Overcast
12:35 PM 67.8 °F 42.6 °F 40% 29.95 in 10.0 mi West 9.2 mph 17.3 mph N/A   Overcast
12:55 PM 68.0 °F 41.2 °F 38% 29.95 in 10.0 mi WSW 16.1 mph 23.0 mph N/A   Overcast
1:15 PM 68.9 °F 41.4 °F 37% 29.95 in 10.0 mi West 10.4 mph 19.6 mph N/A   Overcast
1:35 PM 69.4 °F 41.4 °F 36% 29.95 in 10.0 mi WSW 10.4 mph - N/A   Overcast
1:55 PM 70.0 °F 41.4 °F 35% 29.95 in 10.0 mi West 9.2 mph 16.1 mph N/A   Overcast
2:15 PM 71.1 °F 42.3 °F 35% 29.95 in 10.0 mi West 13.8 mph 20.7 mph N/A   Overcast
2:35 PM 71.8 °F 41.4 °F 33% 29.94 in 10.0 mi West 10.4 mph 17.3 mph N/A   Overcast
2:55 PM 72.7 °F 41.4 °F 32% 29.94 in 10.0 mi West 11.5 mph 18.4 mph N/A   Overcast
3:15 PM 72.5 °F 41.4 °F 32% 29.93 in 10.0 mi WNW 10.4 mph 16.1 mph N/A   Mostly Cloudy
3:35 PM 72.9 °F 41.5 °F 32% 29.93 in 10.0 mi WNW 8.1 mph - N/A   Mostly Cloudy
3:55 PM 73.2 °F 42.1 °F 33% 29.93 in 10.0 mi WNW 6.9 mph - N/A   Mostly Cloudy
4:15 PM 74.3 °F 42.8 °F 32% 29.93 in 10.0 mi West 5.8 mph - N/A   Scattered Clouds
4:35 PM 74.7 °F 43.2 °F 32% 29.93 in 10.0 mi WNW 5.8 mph - N/A   Scattered Clouds
4:55 PM 74.1 °F 43.0 °F 33% 29.94 in 10.0 mi WNW 5.8 mph - N/A   Scattered Clouds
5:15 PM 73.6 °F 42.8 °F 33% 29.94 in 10.0 mi WNW 9.2 mph - N/A   Clear
5:35 PM 73.6 °F 43.0 °F 33% 29.94 in 10.0 mi WNW 5.8 mph - N/A   Scattered Clouds
5:55 PM 73.2 °F 43.0 °F 34% 29.94 in 10.0 mi West 5.8 mph - N/A   Mostly Cloudy
6:15 PM 72.9 °F 42.8 °F 34% 29.95 in 10.0 mi NW 4.6 mph - N/A   Scattered Clouds
6:35 PM 71.1 °F 43.0 °F 36% 29.95 in 10.0 mi NNW 3.5 mph - N/A   Clear
6:55 PM 69.4 °F 43.3 °F 39% 29.96 in 10.0 mi Calm Calm - N/A   Clear
7:15 PM 67.6 °F 43.5 °F 42% 29.96 in 10.0 mi Calm Calm - N/A   Clear
7:35 PM 66.0 °F 43.2 °F 43% 29.97 in 10.0 mi Calm Calm - N/A   Clear
7:55 PM 64.6 °F 43.2 °F 46% 29.98 in 10.0 mi Calm Calm - N/A   Clear
8:15 PM 61.0 °F 44.1 °F 54% 29.98 in 10.0 mi Calm Calm - N/A   Clear
8:35 PM 58.6 °F 45.7 °F 62% 29.98 in 10.0 mi Calm Calm - N/A   Clear
8:55 PM 57.6 °F 45.3 °F 64% 29.99 in 10.0 mi Calm Calm - N/A   Clear
9:15 PM 55.4 °F 45.9 °F 70% 30.00 in 10.0 mi Calm Calm - N/A   Clear
9:35 PM 55.9 °F 45.3 °F 68% 30.00 in 10.0 mi Calm Calm - N/A   Clear
9:55 PM 54.3 °F 45.5 °F 72% 30.00 in 10.0 mi Calm Calm - N/A   Clear
10:15 PM 53.6 °F 46.0 °F 76% 30.01 in 10.0 mi Calm Calm - N/A   Clear
10:35 PM 52.5 °F 46.2 °F 79% 30.01 in 10.0 mi Calm Calm - N/A   Clear
10:55 PM 52.2 °F 46.4 °F 81% 30.01 in 10.0 mi Calm Calm - N/A   Clear
11:15 PM 51.8 °F 46.6 °F 82% 30.01 in 10.0 mi Calm Calm - N/A   Clear
11:35 PM 50.9 °F 46.2 °F 84% 30.01 in 10.0 mi Calm Calm - N/A   Clear
11:55 PM 49.6 °F 46.9 °F 90% 30.00 in 10.0 mi Calm Calm - N/A   Clear